Miscellaneous Local Product
Issued by NWS North Platte, NE

Home | Current Version | Previous Version | Text Only | Print | Product List | Glossary On
Versions: 1 2 3 4 5 6 7 8 9 10 11 12 13 14 15 16 17 18 19 20 21 22 23 24 25 26 27 28 29 30 31 32 33 34 35 36 37 38 39 40 41 42 43 44 45 46 47 48 49 50
633
AXUS43 KLBF 241710
MISLBF


WESTERN AND NORTH CENTRAL NEBRASKA HOURLY WEATHER ROUNDUP
NATIONAL WEATHER SERVICE NORTH PLATTE NE
1200 PM CDT SUN JUL 24 2016

NOTE: "FAIR" INDICATES FEW OR NO CLOUDS BELOW 12,000 FEET WITH NO
SIGNIFICANT WEATHER AND/OR OBSTRUCTIONS TO VISIBILITY.

NOTE: STATIONS NOT REPORTING VARIABLES SUCH AS SKY/WEATHER OR
PRESSURE ARE PROVIDED BY RAWS AND APRS NETWORKS AND ARE NOT UNDER
NATIONAL WEATHER SERVICE QUALITY CONTROL.

...OBSERVATIONS IN AND NEAR THE EASTERN PANHANDLE OF NEBRASKA...

CITY           SKY/WX    TMP DP  RH WIND       PRES   REMARKS
PINE RIDGE     MOSUNNY   82  44  26 E9        30.17R
CHADRON        SUNNY     81  44  27 E13       30.17R
ALLIANCE       MOSUNNY   77  55  46 E16       30.20R
SIDNEY         SUNNY     79  53  40 E16       30.21R
CRESCENT LAKE    N/A     75  56  51 E10G24      N/A
$$

...OBSERVATIONS IN NORTHERN NEBRASKA AND FAR SOUTHERN SOUTH DAKOTA...

CITY           SKY/WX    TMP DP  RH WIND       PRES   REMARKS
WINNER         PTSUNNY   79  54  41 CALM      30.11F
VALENTINE      CLOUDY    80  50  34 CALM      30.15R
THEDFORD       CLOUDY    79  55  43 E3        30.19R
AINSWORTH      CLOUDY    78  58  48 E5        30.15S
O`NEILL        CLOUDY    79  57  45 NW7       30.13R
ORD            CLOUDY    78  64  61 NW5       30.11R
BROKEN BOW     CLOUDY    78  63  59 N9        30.15R
VALENTINE NWR    N/A     80  56  43 CALM        N/A
BUTTE            N/A     73  60  63 CALM        N/A
HALSEY           N/A     78  57  48 CALM        N/A
EWING            N/A     79  67  66 CALM        N/A
$$

...OBSERVATIONS IN SOUTHWEST NEBRASKA AND FAR NORTHEAST COLORADO...

CITY           SKY/WX    TMP DP  RH WIND       PRES   REMARKS
HOLYOKE        FAIR      81  54  39 W14G20    30.19S
IMPERIAL       PTSUNNY   82  52  35 E13       30.16R
OGALLALA       CLOUDY    81  47  30 E16G23    30.15F
NORTH PLATTE   CLOUDY    77  57  50 E7        30.15S
MCCOOK         SUNNY     84  59  42 NE22      30.08F
LEXINGTON      MOSUNNY   80  59  48 NE9       30.11F
STAPLETON        N/A     76  59  55 NE3         N/A
GOTHENBURG       N/A     80  55  42 E3          N/A
CALLAWAY         N/A     78  62  57 CALM        N/A
$$

...OBSERVATIONS IN CENTRAL LINCOLN COUNTY AREA...

CITY           SKY/WX    TMP DP  RH WIND       PRES   REMARKS
N.P. AIRPORT   CLOUDY    77  57  50 E7        30.15S
N.P. DOWNTOWN    N/A     78  60  53 N9          N/A
N.P. SOUTHEAST   N/A     79  58  48 NE3         N/A
N.P. HILLCREST   N/A     76  59  55 NE14G21     N/A
$$

...SOME OBSERVATIONS FROM AROUND THE REGION...

CITY           SKY/WX    TMP DP  RH WIND       PRES   REMARKS
DENVER         MOSUNNY   86  43  22 VRB7      30.18F
LARAMIE        SUNNY     76  33  21 CALM      30.31S
CHEYENNE       CLOUDY    79  51  37 S10       30.25R
SCOTTSBLUFF    SUNNY     81  54  39 E13       30.17R
RAPID CITY     CLOUDY    76  52  43 S7        30.16S
BISMARCK       SUNNY     78  57  48 W12       30.05S
PIERRE         CLOUDY    74  57  55 NW7       30.06R
SIOUX FALLS    CLOUDY    79  61  53 NW8       30.02R
OMAHA          CLOUDY    85  66  53 N8        29.98R
GRAND ISLAND   CLOUDY    79  64  60 VRB6      30.07R
KANSAS CITY    MOSUNNY   92  75  57 VRB5      29.95R HX 103
WICHITA        MOSUNNY   98  67  36 S12       29.94S HX 102
OKLAHOMA CITY  MOSUNNY   94  70  45 S13G22    29.99R HX 100
DALLAS         MOSUNNY   94  69  44 VRB6      29.98S HX  99
AMARILLO       SUNNY     93  58  30 S13       30.10S HX  92
DODGE CITY     CLOUDY    88  66  48 CALM      30.00S HX  90
HAYS           CLOUDY    88  64  45 E15       29.99F
GOODLAND       SUNNY     85  59  41 E17       30.12R
$$




USA.gov is the U.S. government's official web portal to all federal, state and local government web resources and services.